SCP
-0 0 0 0 0 0 0 0 0 0 1 1 0 0 0 0 0 0 0 0 0 0 0 0 0 0 0 0 0 0 0 0 0 0 0 0 0 0 0 0 0 0 0
-0 -0 0 0 0 0 0 0 0 0 0 1 1 1 1 0 0 0 0 0 0 0 0 0 0 0 0 0 0 0 0 0 0 0 0 0 0 0 0 0 0 0 0
-0 -0 -0 0 0 0 0 0 0 0 0 0 1 0 0 0 0 0 1 1 0 1 0 0 0 0 0 0 0 0 0 0 0 0 0 0 0 0 0 0 0 0 0
-0 -0 -0 -0 -0 0 0 0 0 0 0 0 0 1 1 1 1 0 0 1 1 1 1 0 0 0 0 0 0 0 0 0 0 0 0 0 0 0 0 0 0 0 0
0 0 -0 0 0 -0 0 0 0 0 0 0 0 1 1 1 0 0 0 0 0 1 1 1 0 0 0 0 0 0 0 0 0 0 0 0 0 0 0 0 0 0 0
0 0 0 0 0 0 -0 0 0 0 0 0 0 1 1 1 0 0 0 0 1 1 1 1 1 1 1 0 0 0 0 0 0 0 0 0 0 0 0 0 0 0 0
0 0 0 0 0 0 0 0 0 0 0 0 0 1 1 1 0 0 0 1 1 1 1 1 1 1 1 1 1 0 0 0 0 0 0 0 0 0 0 0 0 0 0
-0 -0 -0 -0 0 0 0 0 0 0 0 0 0 0 1 1 0 0 0 1 1 1 2 1 1 1 1 1 1 1 0 0 0 0 0 0 0 0 0 0 0 0 0
-0 -0 -0 -0 -0 -0 0 0 0 0 0 0 0 0 0 0 0 0 0 1 1 1 1 1 1 1 2 1 1 1 0 0 0 0 0 0 0 0 0 0 0 0 0
-0 -0 -0 -0 -0 -0 0 0 0 0 0 0 0 0 0 0 0 0 0 1 1 1 1 1 2 1 2 1 0 0 0 0 0 0 0 0 0 0 0 0 0 0 0
-0 -0 -0 -0 0 0 0 0 0 0 0 0 0 0 0 0 0 0 0 1 1 1 1 2 2 2 1 0 0 0 0 0 0 0 0 0 0 0 0 0 0 0 0
-0 -0 -0 0 0 0 0 0 0 0 0 0 0 0 0 0 0 0 1 1 1 1 2 2 2 1 0 0 0 0 0 0 0 0 0 0 0 0 0 0 0 0 0
0 -0 -0 0 0 0 0 0 0 0 0 0 0 0 0 0 0 0 1 1 1 2 2 2 2 1 0 0 0 0 0 0 0 0 0 0 0 0 0 0 0 0 0
-0 -0 -0 0 0 0 0 0 0 0 0 0 0 0 0 0 1 1 1 1 2 2 2 2 1 0 0 0 0 0 0 0 0 0 0 0 0 0 0 0 0 0 0
-0 -0 -0 0 0 0 0 0 0 0 0 0 0 0 1 1 2 1 1 2 2 2 2 1 1 0 0 0 0 0 0 0 0 0 0 0 0 0 0 0 0 0 0
-0 -0 -0 0 0 0 -0 0 0 1 3 1 1 2 3 3 3 2 2 2 2 1 1 0 0 0 0 0 0 0 0 0 0 0 0 0 0 0 0 0 0 0 0
-0 -0 0 -0 0 -0 0 0 0 1 5 3 3 3 4 3 3 3 3 2 1 1 0 0 0 0 0 0 0 0 0 0 0 0 0 0 0 0 0 0 0 0 0
-0 -0 -0 -0 -0 -0 0 0 0 0 5 3 3 4 3 3 3 2 2 1 0 0 0 0 0 0 0 0 0 0 0 0 0 0 0 0 0 0 0 0 0 0 0
-0 0 -0 -0 -0 -0 0 0 0 0 2 2 2 3 2 2 2 1 0 0 0 0 0 0 0 0 0 0 0 0 0 0 0 0 0 0 0 0 0 0 -0 -0 0
-0 -0 -0 0 0 0 0 0 0 0 0 2 2 2 1 1 1 0 0 0 0 0 0 0 0 0 0 0 0 0 0 0 0 0 0 0 0 0 -0 -0 -0 -0 -0
-0 -0 -0 0 0 0 0 0 0 0 0 1 1 1 1 0 0 0 0 0 0 0 0 0 0 0 0 0 0 0 0 0 0 0 0 0 0 -0 -0 0 0 -0 -0
-0 -0 -0 0 0 0 0 0 0 0 0 0 0 1 0 0 0 0 0 0 0 0 0 0 0 0 0 0 0 0 0 0 0 0 0 0 0 -0 0 0 -0 -0 -0
-0 -0 0 -0 -0 0 0 0 0 0 0 0 0 0 0 0 0 0 0 0 0 0 0 0 0 0 0 0 0 0 0 0 0 0 0 -0 0 -0 0 -0 -0 -0 0
-0 -0 0 -0 0 0 0 0 0 0 0 0 0 0 0 0 0 0 0 0 0 0 0 0 0 0 0 0 0 0 0 0 0 0 0 0 0 0 0 0 0 0 0
0 0 0 0 -0 0 0 0 0 0 0 0 0 0 0 0 0 0 0 0 0 0 0 0 0 0 0 0 0 0 0 0 0 0 0 0 0 0 0 0 0 0 0
0 0 0 -0 -0 0 0 0 0 0 0 0 0 0 0 0 0 0 0 0 0 0 0 0 0 0 0 0 0 0 0 0 0 0 0 0 0 0 0 0 0 0 -0
Wind_Speed_500mb
28 25 30 34 33 28 25 30 36 42 49 49 56 77 91 90 79 83 70 58 58 56 52 48 42 36 36 31 31 31 34 31 28 29 26 30 28 30 30 32 38 37 41
37 41 36 40 43 44 37 30 28 39 50 57 62 61 73 86 83 81 71 65 61 56 57 50 45 40 36 30 29 31 32 32 32 30 27 22 23 28 25 31 35 36 34
36 33 38 41 47 48 48 47 34 34 38 55 66 68 65 78 92 91 75 78 71 63 61 49 47 41 34 29 25 28 34 32 32 28 28 10 11 13 19 16 17 23 27
39 43 48 54 55 61 58 58 52 42 41 42 62 76 84 79 83 91 82 83 73 66 57 52 51 42 34 28 25 29 34 31 34 33 35 35 36 28 17 18 19 27 29
46 47 45 44 49 52 52 58 62 58 50 45 50 68 79 82 86 101 94 89 75 65 60 57 51 42 36 27 29 33 34 33 37 35 32 33 33 33 35 35 24 22 25
37 48 56 65 68 62 63 56 59 65 63 56 54 62 76 85 80 88 99 97 72 61 62 59 51 41 38 33 31 31 30 31 30 32 31 32 34 37 32 31 27 27 19
53 60 73 83 82 83 75 66 60 66 71 67 63 57 75 78 85 80 88 96 75 58 60 60 50 46 40 35 32 32 32 35 32 28 24 26 31 31 28 26 23 22 21
52 66 82 89 87 94 87 69 64 72 73 78 70 59 73 82 87 87 91 100 81 59 58 53 46 41 38 35 32 31 33 35 30 29 27 28 29 27 26 24 22 20 18
56 68 86 103 106 109 97 67 67 75 77 81 82 68 65 83 91 89 88 92 77 61 55 49 42 43 39 35 29 36 35 33 31 26 28 29 29 27 26 23 19 18 11
55 75 95 92 96 86 72 60 66 76 83 86 89 75 66 79 85 91 86 74 72 64 55 45 44 45 37 37 29 39 37 33 34 34 29 30 28 24 22 20 19 17 17
55 69 87 74 72 59 60 70 63 69 85 86 93 82 72 74 79 80 69 74 74 64 49 49 47 48 44 39 35 39 32 32 32 32 30 27 23 21 21 20 19 18 19
49 74 83 79 81 71 69 71 65 71 88 85 93 87 72 72 71 68 71 78 68 53 51 50 49 52 49 35 39 40 32 33 30 30 29 26 23 22 21 22 21 21 21
50 70 84 78 86 90 75 73 62 67 77 83 86 81 75 70 65 69 75 68 53 53 54 52 52 57 45 41 41 37 30 26 27 27 23 21 22 20 19 19 20 21 25
46 55 70 84 92 99 76 84 64 50 57 71 78 73 75 70 67 72 65 50 54 56 57 52 57 56 44 44 40 35 24 26 26 26 21 18 20 18 18 16 16 19 25
43 47 57 69 87 100 85 78 71 40 42 62 75 69 70 65 65 66 56 54 55 56 55 54 62 51 46 49 40 28 26 27 28 25 18 17 19 20 19 17 16 19 23
42 51 69 86 96 98 83 100 76 26 23 38 65 71 63 65 66 63 61 58 54 56 56 63 61 54 49 43 29 27 31 28 28 21 16 17 20 21 20 17 17 25 29
50 62 71 71 75 85 94 84 66 3 13 20 42 60 69 71 67 63 56 54 56 57 62 65 58 52 45 37 33 27 27 29 23 21 15 16 18 20 18 18 22 22 25
47 69 67 71 78 86 58 55 49 17 7 21 42 54 64 64 58 53 54 58 58 64 65 64 57 51 44 42 34 27 25 20 23 21 17 16 18 19 19 21 23 20 19
60 68 84 77 80 75 76 65 40 28 6 15 30 49 56 55 53 61 63 63 62 65 70 59 55 48 45 45 40 33 28 26 28 22 18 18 19 20 22 26 21 24 18
56 77 83 71 67 60 60 58 38 14 4 19 31 41 45 50 65 67 67 62 71 72 62 54 49 45 45 37 34 30 25 29 27 22 21 19 19 21 20 19 21 27 19
64 76 72 71 63 54 53 45 35 5 12 20 28 37 49 57 66 73 61 70 69 63 59 54 48 42 37 36 34 29 25 24 23 22 21 16 15 14 12 11 17 23 24
63 67 72 73 54 45 46 39 24 12 21 24 29 39 54 73 72 67 71 68 64 62 58 54 48 43 37 32 30 27 24 21 19 19 17 13 11 12 20 16 22 20 19
67 62 70 69 51 40 41 37 12 7 18 3 15 45 69 75 69 70 71 68 64 59 55 53 46 41 34 31 30 27 24 21 19 19 17 14 19 21 25 19 14 11 16
59 50 61 66 50 31 35 22 17 13 19 14 21 35 62 67 65 66 66 65 61 58 54 47 41 35 34 33 31 29 27 23 19 20 20 20 25 25 24 22 19 15 7
54 58 60 68 43 28 29 11 16 24 9 9 34 40 71 68 68 65 61 54 52 46 45 40 33 33 32 28 25 26 26 22 20 19 20 26 31 33 27 23 20 14 2
65 69 64 46 30 23 26 8 18 19 20 55 55 77 75 70 64 59 56 48 41 33 23 21 25 26 21 21 26 28 25 23 21 22 19 28 31 32 27 25 23 15 5
Wind_Direction_500mb
324 337 329 319 312 299 286 269 261 277 275 278 264 251 243 237 234 234 240 241 249 250 254 263 272 279 285 279 269 263 255 257 259 253 259 265 269 265 270 272 272 270 280
310 316 310 310 304 301 292 280 265 257 267 277 275 265 251 240 234 237 237 249 249 252 255 261 271 280 276 269 264 261 252 252 253 249 259 276 281 276 280 282 278 283 282
310 314 317 317 317 305 294 286 272 260 266 260 275 265 252 245 238 241 239 242 248 254 252 259 267 272 260 262 261 258 253 250 253 247 236 250 241 299 292 283 274 282 292
307 311 316 318 317 310 299 287 280 267 264 256 256 267 261 257 251 241 252 247 250 251 253 259 265 259 251 257 257 250 248 243 245 239 239 246 258 277 283 262 275 283 295
309 317 323 322 321 316 307 288 280 272 261 264 255 251 258 255 252 250 257 251 249 252 253 255 257 248 246 250 249 245 242 242 237 233 240 243 250 257 256 273 277 280 292
313 314 319 322 317 319 315 302 282 270 266 261 265 249 249 250 245 244 252 251 249 249 248 255 254 240 239 242 244 245 235 235 233 235 240 244 246 257 264 262 276 287 290
319 320 322 320 316 317 314 305 293 274 266 261 263 258 246 245 244 243 245 245 245 244 253 258 250 238 235 237 236 238 225 214 227 228 240 252 255 257 258 262 268 275 290
320 326 326 321 316 314 310 299 293 280 266 260 259 258 246 245 244 243 241 242 244 248 258 259 246 234 232 233 233 217 202 215 218 228 237 251 255 252 255 258 258 267 279
320 325 332 324 316 307 304 289 290 276 270 258 256 253 249 238 243 244 242 241 238 241 250 245 239 229 226 229 225 200 207 209 213 225 234 252 250 251 253 250 244 256 263
316 327 328 318 309 303 294 288 287 278 272 256 251 254 251 236 241 243 244 233 228 235 239 235 232 224 225 226 224 202 212 204 211 221 239 249 247 245 236 235 241 248 246
319 328 330 332 324 310 306 296 289 278 270 259 244 248 249 237 241 242 231 220 226 232 231 233 227 220 225 221 202 205 206 207 214 226 241 237 233 235 230 229 231 235 249
312 335 335 325 328 321 316 307 293 280 266 252 240 242 241 235 238 231 214 218 225 226 231 228 223 219 221 209 201 211 209 214 221 232 226 227 228 230 227 228 231 239 240
303 322 329 315 318 329 318 318 307 271 255 239 232 237 231 229 228 217 216 218 217 227 224 220 217 218 214 194 205 210 204 219 219 213 213 224 223 223 221 221 232 242 235
303 319 325 318 322 330 324 326 316 295 246 225 221 226 222 223 223 213 213 215 222 223 217 214 214 211 201 194 204 197 204 200 203 202 210 221 224 220 219 223 231 239 236
312 318 323 317 322 328 328 325 318 299 239 212 214 218 216 218 211 210 210 214 216 215 211 214 203 202 190 195 193 197 198 202 198 199 209 226 225 219 222 227 233 241 244
325 331 327 324 329 322 319 313 307 305 235 196 209 207 204 199 204 200 201 205 206 209 211 199 195 188 184 185 191 198 205 209 194 195 214 233 232 228 224 225 249 260 250
328 334 331 321 311 307 307 315 309 212 210 181 187 192 200 194 187 191 196 204 203 197 191 188 183 180 178 179 178 172 177 181 193 201 231 245 231 223 226 259 275 255 244
326 329 315 322 314 296 275 313 358 26 215 199 186 173 179 183 187 194 197 188 186 181 184 179 176 174 177 175 167 175 186 187 201 216 237 243 229 228 244 265 270 237 247
318 322 324 320 322 325 343 349 353 20 148 191 193 184 185 185 190 185 179 179 180 178 173 171 171 175 175 175 185 189 201 211 214 225 245 237 237 241 258 270 233 218 228
314 323 325 321 324 330 342 346 347 7 28 164 188 191 198 192 183 179 177 181 170 165 162 166 171 174 178 181 195 200 213 215 222 234 237 233 238 252 260 239 219 211 215
315 321 318 318 324 331 343 347 337 320 35 189 190 204 202 193 180 169 170 167 165 162 165 167 171 177 183 187 196 207 217 226 233 233 221 220 240 247 210 190 209 209 203
316 315 310 315 322 332 339 343 338 217 172 121 182 189 197 178 172 169 162 165 166 167 167 170 171 172 182 187 197 205 209 214 215 207 203 204 209 169 147 137 135 147 175
313 307 308 315 316 329 337 334 345 270 200 256 126 183 179 168 165 161 160 164 168 168 168 171 173 179 184 193 194 194 199 193 190 191 189 185 171 161 162 156 161 177 184
295 294 300 308 309 328 334 326 289 209 162 74 127 180 172 163 162 162 165 167 169 171 174 177 181 184 188 190 188 189 188 186 185 182 183 179 166 168 167 167 167 172 196
275 283 289 295 297 313 334 331 275 234 226 260 194 162 174 166 162 165 166 171 176 181 181 186 188 189 188 191 192 192 185 187 180 177 180 172 174 175 173 174 173 179 210
275 284 288 276 279 302 320 219 220 226 312 141 166 183 168 165 163 167 167 171 175 177 183 190 187 177 175 174 178 175 175 180 186 183 186 179 184 184 182 181 176 171 199
Wind_Speed_850mb
28 25 30 34 33 28 25 30 36 42 49 49 56 77 91 90 79 83 70 58 58 56 52 48 42 36 36 31 31 31 34 31 28 29 26 30 28 30 30 32 38 37 41
37 41 36 40 43 44 37 30 28 39 50 57 62 61 73 86 83 81 71 65 61 56 57 50 45 40 36 30 29 31 32 32 32 30 27 22 23 28 25 31 35 36 34
36 33 38 41 47 48 48 47 34 34 38 55 66 68 65 78 92 91 75 78 71 63 61 49 47 41 34 29 25 28 34 32 32 28 28 10 11 13 19 16 17 23 27
39 43 48 54 55 61 58 58 52 42 41 42 62 76 84 79 83 91 82 83 73 66 57 52 51 42 34 28 25 29 34 31 34 33 35 35 36 28 17 18 19 27 29
46 47 45 44 49 52 52 58 62 58 50 45 50 68 79 82 86 101 94 89 75 65 60 57 51 42 36 27 29 33 34 33 37 35 32 33 33 33 35 35 24 22 25
37 48 56 65 68 62 63 56 59 65 63 56 54 62 76 85 80 88 99 97 72 61 62 59 51 41 38 33 31 31 30 31 30 32 31 32 34 37 32 31 27 27 19
53 60 73 83 82 83 75 66 60 66 71 67 63 57 75 78 85 80 88 96 75 58 60 60 50 46 40 35 32 32 32 35 32 28 24 26 31 31 28 26 23 22 21
52 66 82 89 87 94 87 69 64 72 73 78 70 59 73 82 87 87 91 100 81 59 58 53 46 41 38 35 32 31 33 35 30 29 27 28 29 27 26 24 22 20 18
56 68 86 103 106 109 97 67 67 75 77 81 82 68 65 83 91 89 88 92 77 61 55 49 42 43 39 35 29 36 35 33 31 26 28 29 29 27 26 23 19 18 11
55 75 95 92 96 86 72 60 66 76 83 86 89 75 66 79 85 91 86 74 72 64 55 45 44 45 37 37 29 39 37 33 34 34 29 30 28 24 22 20 19 17 17
55 69 87 74 72 59 60 70 63 69 85 86 93 82 72 74 79 80 69 74 74 64 49 49 47 48 44 39 35 39 32 32 32 32 30 27 23 21 21 20 19 18 19
49 74 83 79 81 71 69 71 65 71 88 85 93 87 72 72 71 68 71 78 68 53 51 50 49 52 49 35 39 40 32 33 30 30 29 26 23 22 21 22 21 21 21
50 70 84 78 86 90 75 73 62 67 77 83 86 81 75 70 65 69 75 68 53 53 54 52 52 57 45 41 41 37 30 26 27 27 23 21 22 20 19 19 20 21 25
46 55 70 84 92 99 76 84 64 50 57 71 78 73 75 70 67 72 65 50 54 56 57 52 57 56 44 44 40 35 24 26 26 26 21 18 20 18 18 16 16 19 25
43 47 57 69 87 100 85 78 71 40 42 62 75 69 70 65 65 66 56 54 55 56 55 54 62 51 46 49 40 28 26 27 28 25 18 17 19 20 19 17 16 19 23
42 51 69 86 96 98 83 100 76 26 23 38 65 71 63 65 66 63 61 58 54 56 56 63 61 54 49 43 29 27 31 28 28 21 16 17 20 21 20 17 17 25 29
50 62 71 71 75 85 94 84 66 3 13 20 42 60 69 71 67 63 56 54 56 57 62 65 58 52 45 37 33 27 27 29 23 21 15 16 18 20 18 18 22 22 25
47 69 67 71 78 86 58 55 49 17 7 21 42 54 64 64 58 53 54 58 58 64 65 64 57 51 44 42 34 27 25 20 23 21 17 16 18 19 19 21 23 20 19
60 68 84 77 80 75 76 65 40 28 6 15 30 49 56 55 53 61 63 63 62 65 70 59 55 48 45 45 40 33 28 26 28 22 18 18 19 20 22 26 21 24 18
56 77 83 71 67 60 60 58 38 14 4 19 31 41 45 50 65 67 67 62 71 72 62 54 49 45 45 37 34 30 25 29 27 22 21 19 19 21 20 19 21 27 19
64 76 72 71 63 54 53 45 35 5 12 20 28 37 49 57 66 73 61 70 69 63 59 54 48 42 37 36 34 29 25 24 23 22 21 16 15 14 12 11 17 23 24
63 67 72 73 54 45 46 39 24 12 21 24 29 39 54 73 72 67 71 68 64 62 58 54 48 43 37 32 30 27 24 21 19 19 17 13 11 12 20 16 22 20 19
67 62 70 69 51 40 41 37 12 7 18 3 15 45 69 75 69 70 71 68 64 59 55 53 46 41 34 31 30 27 24 21 19 19 17 14 19 21 25 19 14 11 16
59 50 61 66 50 31 35 22 17 13 19 14 21 35 62 67 65 66 66 65 61 58 54 47 41 35 34 33 31 29 27 23 19 20 20 20 25 25 24 22 19 15 7
54 58 60 68 43 28 29 11 16 24 9 9 34 40 71 68 68 65 61 54 52 46 45 40 33 33 32 28 25 26 26 22 20 19 20 26 31 33 27 23 20 14 2
65 69 64 46 30 23 26 8 18 19 20 55 55 77 75 70 64 59 56 48 41 33 23 21 25 26 21 21 26 28 25 23 21 22 19 28 31 32 27 25 23 15 5
Wind_Direction_850mb
324 337 329 319 312 299 286 269 261 277 275 278 264 251 243 237 234 234 240 241 249 250 254 263 272 279 285 279 269 263 255 257 259 253 259 265 269 265 270 272 272 270 280
310 316 310 310 304 301 292 280 265 257 267 277 275 265 251 240 234 237 237 249 249 252 255 261 271 280 276 269 264 261 252 252 253 249 259 276 281 276 280 282 278 283 282
310 314 317 317 317 305 294 286 272 260 266 260 275 265 252 245 238 241 239 242 248 254 252 259 267 272 260 262 261 258 253 250 253 247 236 250 241 299 292 283 274 282 292
307 311 316 318 317 310 299 287 280 267 264 256 256 267 261 257 251 241 252 247 250 251 253 259 265 259 251 257 257 250 248 243 245 239 239 246 258 277 283 262 275 283 295
309 317 323 322 321 316 307 288 280 272 261 264 255 251 258 255 252 250 257 251 249 252 253 255 257 248 246 250 249 245 242 242 237 233 240 243 250 257 256 273 277 280 292
313 314 319 322 317 319 315 302 282 270 266 261 265 249 249 250 245 244 252 251 249 249 248 255 254 240 239 242 244 245 235 235 233 235 240 244 246 257 264 262 276 287 290
319 320 322 320 316 317 314 305 293 274 266 261 263 258 246 245 244 243 245 245 245 244 253 258 250 238 235 237 236 238 225 214 227 228 240 252 255 257 258 262 268 275 290
320 326 326 321 316 314 310 299 293 280 266 260 259 258 246 245 244 243 241 242 244 248 258 259 246 234 232 233 233 217 202 215 218 228 237 251 255 252 255 258 258 267 279
320 325 332 324 316 307 304 289 290 276 270 258 256 253 249 238 243 244 242 241 238 241 250 245 239 229 226 229 225 200 207 209 213 225 234 252 250 251 253 250 244 256 263
316 327 328 318 309 303 294 288 287 278 272 256 251 254 251 236 241 243 244 233 228 235 239 235 232 224 225 226 224 202 212 204 211 221 239 249 247 245 236 235 241 248 246
319 328 330 332 324 310 306 296 289 278 270 259 244 248 249 237 241 242 231 220 226 232 231 233 227 220 225 221 202 205 206 207 214 226 241 237 233 235 230 229 231 235 249
312 335 335 325 328 321 316 307 293 280 266 252 240 242 241 235 238 231 214 218 225 226 231 228 223 219 221 209 201 211 209 214 221 232 226 227 228 230 227 228 231 239 240
303 322 329 315 318 329 318 318 307 271 255 239 232 237 231 229 228 217 216 218 217 227 224 220 217 218 214 194 205 210 204 219 219 213 213 224 223 223 221 221 232 242 235
303 319 325 318 322 330 324 326 316 295 246 225 221 226 222 223 223 213 213 215 222 223 217 214 214 211 201 194 204 197 204 200 203 202 210 221 224 220 219 223 231 239 236
312 318 323 317 322 328 328 325 318 299 239 212 214 218 216 218 211 210 210 214 216 215 211 214 203 202 190 195 193 197 198 202 198 199 209 226 225 219 222 227 233 241 244
325 331 327 324 329 322 319 313 307 305 235 196 209 207 204 199 204 200 201 205 206 209 211 199 195 188 184 185 191 198 205 209 194 195 214 233 232 228 224 225 249 260 250
328 334 331 321 311 307 307 315 309 212 210 181 187 192 200 194 187 191 196 204 203 197 191 188 183 180 178 179 178 172 177 181 193 201 231 245 231 223 226 259 275 255 244
326 329 315 322 314 296 275 313 358 26 215 199 186 173 179 183 187 194 197 188 186 181 184 179 176 174 177 175 167 175 186 187 201 216 237 243 229 228 244 265 270 237 247
318 322 324 320 322 325 343 349 353 20 148 191 193 184 185 185 190 185 179 179 180 178 173 171 171 175 175 175 185 189 201 211 214 225 245 237 237 241 258 270 233 218 228
314 323 325 321 324 330 342 346 347 7 28 164 188 191 198 192 183 179 177 181 170 165 162 166 171 174 178 181 195 200 213 215 222 234 237 233 238 252 260 239 219 211 215
315 321 318 318 324 331 343 347 337 320 35 189 190 204 202 193 180 169 170 167 165 162 165 167 171 177 183 187 196 207 217 226 233 233 221 220 240 247 210 190 209 209 203
316 315 310 315 322 332 339 343 338 217 172 121 182 189 197 178 172 169 162 165 166 167 167 170 171 172 182 187 197 205 209 214 215 207 203 204 209 169 147 137 135 147 175
313 307 308 315 316 329 337 334 345 270 200 256 126 183 179 168 165 161 160 164 168 168 168 171 173 179 184 193 194 194 199 193 190 191 189 185 171 161 162 156 161 177 184
295 294 300 308 309 328 334 326 289 209 162 74 127 180 172 163 162 162 165 167 169 171 174 177 181 184 188 190 188 189 188 186 185 182 183 179 166 168 167 167 167 172 196
275 283 289 295 297 313 334 331 275 234 226 260 194 162 174 166 162 165 166 171 176 181 181 186 188 189 188 191 192 192 185 187 180 177 180 172 174 175 173 174 173 179 210
275 284 288 276 279 302 320 219 220 226 312 141 166 183 168 165 163 167 167 171 175 177 183 190 187 177 175 174 178 175 175 180 186 183 186 179 184 184 182 181 176 171 199